Year,Month,Day,Hour,Minute,Value (Times are PST for temperature in C)
2014,05,01,00,00,14.40
2014,05,01,00,01,14.40
2014,05,01,00,02,14.40
2014,05,01,00,03,14.30
2014,05,01,00,04,14.30
2014,05,01,00,05,14.30
2014,05,01,00,06,14.30
2014,05,01,00,07,14.20
2014,05,01,00,08,14.20
2014,05,01,00,09,14.20
2014,05,01,00,10,14.20
2014,05,01,00,11,14.20
2014,05,01,00,12,14.20
2014,05,01,00,13,14.20
2014,05,01,00,14,14.20
2014,05,01,00,15,14.20
2014,05,01,00,16,14.20
2014,05,01,00,17,14.20
2014,05,01,00,18,14.20
2014,05,01,00,19,14.20
2014,05,01,00,20,14.20
2014,05,01,00,21,14.20
2014,05,01,00,22,14.20
2014,05,01,00,23,14.20
2014,05,01,00,24,14.30
2014,05,01,00,25,14.30
2014,05,01,00,26,14.30
2014,05,01,00,27,14.20
2014,05,01,00,28,14.20
2014,05,01,00,29,14.20
2014,05,01,00,30,14.20
2014,05,01,00,31,14.20
2014,05,01,00,32,14.20
2014,05,01,00,33,14.20
2014,05,01,00,34,14.20
2014,05,01,00,35,14.20
2014,05,01,00,36,14.20
2014,05,01,00,37,14.20
2014,05,01,00,38,14.20
2014,05,01,00,39,14.20
2014,05,01,00,40,14.20
2014,05,01,00,41,14.10
2014,05,01,00,42,14.10
2014,05,01,00,43,14.10
2014,05,01,00,44,14.00
2014,05,01,00,45,14.00
2014,05,01,00,46,13.90
2014,05,01,00,47,13.90
2014,05,01,00,48,13.90
2014,05,01,00,49,13.90
2014,05,01,00,50,13.80
2014,05,01,00,51,13.80
2014,05,01,00,52,13.80
2014,05,01,00,53,13.80
2014,05,01,00,54,13.80
2014,05,01,00,55,13.80
2014,05,01,00,56,13.80
2014,05,01,00,57,13.80
2014,05,01,00,58,13.80
2014,05,01,00,59,13.80
2014,05,01,01,00,13.80
2014,05,01,01,01,13.70
2014,05,01,01,02,13.70
2014,05,01,01,03,13.70
2014,05,01,01,04,13.70
2014,05,01,01,05,13.70
2014,05,01,01,06,13.70
2014,05,01,01,07,13.80
2014,05,01,01,08,13.70
2014,05,01,01,09,13.70
2014,05,01,01,10,13.70
2014,05,01,01,11,13.70
2014,05,01,01,12,13.70
2014,05,01,01,13,13.70
2014,05,01,01,14,13.60
2014,05,01,01,15,13.60
2014,05,01,01,16,13.60
2014,05,01,01,17,13.60
2014,05,01,01,18,13.60
2014,05,01,01,19,13.60
2014,05,01,01,20,13.60
2014,05,01,01,21,13.60
2014,05,01,01,22,13.50
2014,05,01,01,23,13.60
2014,05,01,01,24,13.50
2014,05,01,01,25,13.40
2014,05,01,01,26,13.40
2014,05,01,01,27,13.40
2014,05,01,01,28,13.40
2014,05,01,01,29,13.40
2014,05,01,01,30,13.40
2014,05,01,01,31,13.40
2014,05,01,01,32,13.40
2014,05,01,01,33,13.40
2014,05,01,01,34,13.40
2014,05,01,01,35,13.40
2014,05,01,01,36,13.30
2014,05,01,01,37,13.30
2014,05,01,01,38,13.30
2014,05,01,01,39,13.30
2014,05,01,01,40,13.30
2014,05,01,01,41,13.30
2014,05,01,01,42,13.30
2014,05,01,01,43,13.30
2014,05,01,01,44,13.30
2014,05,01,01,45,13.40
2014,05,01,01,46,13.40
2014,05,01,01,47,13.50
2014,05,01,01,48,13.50
2014,05,01,01,49,13.60
2014,05,01,01,50,13.60
2014,05,01,01,51,13.60
2014,05,01,01,52,13.60
2014,05,01,01,53,13.60
2014,05,01,01,54,13.60
2014,05,01,01,55,13.60
2014,05,01,01,56,13.60
2014,05,01,01,57,13.50
2014,05,01,01,58,13.50
2014,05,01,01,59,13.40
2014,05,01,02,00,13.40
2014,05,01,02,01,13.30
2014,05,01,02,02,13.30
2014,05,01,02,03,13.20
2014,05,01,02,04,13.20
2014,05,01,02,05,13.10
2014,05,01,02,06,13.10
2014,05,01,02,07,13.10
2014,05,01,02,08,13.10
2014,05,01,02,09,13.20
2014,05,01,02,10,13.20
2014,05,01,02,11,13.20
2014,05,01,02,12,13.20
2014,05,01,02,13,13.20
2014,05,01,02,14,13.20
2014,05,01,02,15,13.20
2014,05,01,02,16,13.20
2014,05,01,02,17,13.20
2014,05,01,02,18,13.20
2014,05,01,02,19,13.20
2014,05,01,02,20,13.30
2014,05,01,02,21,13.30
2014,05,01,02,22,13.30
2014,05,01,02,23,13.30
2014,05,01,02,24,13.30
2014,05,01,02,25,13.30
2014,05,01,02,26,13.30
2014,05,01,02,27,13.30
2014,05,01,02,28,13.20
2014,05,01,02,29,13.20
2014,05,01,02,30,13.30
2014,05,01,02,31,13.30
2014,05,01,02,32,13.30
2014,05,01,02,33,13.40
2014,05,01,02,34,13.40
2014,05,01,02,35,13.40
2014,05,01,02,36,13.40
2014,05,01,02,37,13.40
2014,05,01,02,38,13.40
2014,05,01,02,39,13.40
2014,05,01,02,40,13.40
2014,05,01,02,41,13.40
2014,05,01,02,42,13.40
2014,05,01,02,43,13.40
2014,05,01,02,44,13.50
2014,05,01,02,45,13.50
2014,05,01,02,46,13.60
2014,05,01,02,47,13.60
2014,05,01,02,48,13.60
2014,05,01,02,49,13.70
2014,05,01,02,50,13.70
2014,05,01,02,51,13.70
2014,05,01,02,52,13.70
2014,05,01,02,53,13.70
2014,05,01,02,54,13.70
2014,05,01,02,55,13.70
2014,05,01,02,56,13.60
2014,05,01,02,57,13.60
2014,05,01,02,58,13.60
2014,05,01,02,59,13.50
2014,05,01,03,00,13.50
2014,05,01,03,01,13.40
2014,05,01,03,02,13.40
2014,05,01,03,03,13.40
2014,05,01,03,04,13.40
2014,05,01,03,05,13.30
2014,05,01,03,06,13.30
2014,05,01,03,07,13.30
2014,05,01,03,08,13.30
2014,05,01,03,09,13.30
2014,05,01,03,10,13.30
2014,05,01,03,11,13.30
2014,05,01,03,12,13.30
2014,05,01,03,13,13.30
2014,05,01,03,14,13.40
2014,05,01,03,15,13.40
2014,05,01,03,16,13.30
2014,05,01,03,17,13.30
2014,05,01,03,18,13.40
2014,05,01,03,19,13.50
2014,05,01,03,20,13.60
2014,05,01,03,21,13.60
2014,05,01,03,22,13.70
2014,05,01,03,23,13.70
2014,05,01,03,24,13.60
2014,05,01,03,25,13.60
2014,05,01,03,26,13.60
2014,05,01,03,27,13.60
2014,05,01,03,28,13.60
2014,05,01,03,29,13.60
2014,05,01,03,30,13.50
2014,05,01,03,31,13.50
2014,05,01,03,32,13.50
2014,05,01,03,33,13.50
2014,05,01,03,34,13.40
2014,05,01,03,35,13.40
2014,05,01,03,36,13.40
2014,05,01,03,37,13.40
2014,05,01,03,38,13.40
2014,05,01,03,39,13.40
2014,05,01,03,40,13.40
2014,05,01,03,41,13.40
2014,05,01,03,42,13.40
2014,05,01,03,43,13.50
2014,05,01,03,44,13.50
2014,05,01,03,45,13.50
2014,05,01,03,46,13.50
2014,05,01,03,47,13.60
2014,05,01,03,48,13.70
2014,05,01,03,49,13.70
2014,05,01,03,50,13.80
2014,05,01,03,51,13.90
2014,05,01,03,52,13.90
2014,05,01,03,53,13.80
2014,05,01,03,54,13.80
2014,05,01,03,55,13.80
2014,05,01,03,56,13.80
2014,05,01,03,57,13.80
2014,05,01,03,58,13.90
2014,05,01,03,59,13.90
2014,05,01,04,00,13.90
2014,05,01,04,01,13.90
2014,05,01,04,02,13.90
2014,05,01,04,03,13.90
2014,05,01,04,04,13.80
2014,05,01,04,05,13.80
2014,05,01,04,06,13.70
2014,05,01,04,07,13.70
2014,05,01,04,08,13.70
2014,05,01,04,09,13.60
2014,05,01,04,10,13.60
2014,05,01,04,11,13.70
2014,05,01,04,12,13.70
2014,05,01,04,13,13.60
2014,05,01,04,14,13.70
2014,05,01,04,15,13.70
2014,05,01,04,16,13.70
2014,05,01,04,17,13.70
2014,05,01,04,18,13.70
2014,05,01,04,19,13.70
2014,05,01,04,20,13.70
2014,05,01,04,21,13.70
2014,05,01,04,22,13.60
2014,05,01,04,23,13.60
2014,05,01,04,24,13.60
2014,05,01,04,25,13.60
2014,05,01,04,26,13.60
2014,05,01,04,27,13.60
2014,05,01,04,28,13.60
2014,05,01,04,29,13.60
2014,05,01,04,30,13.60
2014,05,01,04,31,13.70
2014,05,01,04,32,13.80
2014,05,01,04,33,13.90
2014,05,01,04,34,14.00
2014,05,01,04,35,14.10
2014,05,01,04,36,14.20
2014,05,01,04,37,14.30
2014,05,01,04,38,14.40
2014,05,01,04,39,14.40
2014,05,01,04,40,14.40
2014,05,01,04,41,14.40
2014,05,01,04,42,14.40
2014,05,01,04,43,14.40
2014,05,01,04,44,14.50
2014,05,01,04,45,14.60
2014,05,01,04,46,14.60
2014,05,01,04,47,14.60
2014,05,01,04,48,14.70
2014,05,01,04,49,14.70
2014,05,01,04,50,14.60
2014,05,01,04,51,14.60
2014,05,01,04,52,14.60
2014,05,01,04,53,14.60
2014,05,01,04,54,14.60
2014,05,01,04,55,14.60
2014,05,01,04,56,14.60
2014,05,01,04,57,14.60
2014,05,01,04,58,14.60
2014,05,01,04,59,14.60
2014,05,01,05,00,14.60
2014,05,01,05,01,14.60
2014,05,01,05,02,14.50
2014,05,01,05,03,14.40
2014,05,01,05,04,14.30
2014,05,01,05,05,14.30
2014,05,01,05,06,14.30
2014,05,01,05,07,14.20
2014,05,01,05,08,14.20
2014,05,01,05,09,14.20
2014,05,01,05,10,14.10
2014,05,01,05,11,14.10
2014,05,01,05,12,14.10
2014,05,01,05,13,14.10
2014,05,01,05,14,14.10
2014,05,01,05,15,14.10
2014,05,01,05,16,14.10
2014,05,01,05,17,14.10
2014,05,01,05,18,14.10
2014,05,01,05,19,14.10
2014,05,01,05,20,14.10
2014,05,01,05,21,14.00
2014,05,01,05,22,13.90
2014,05,01,05,23,13.80
2014,05,01,05,24,13.80
2014,05,01,05,25,13.70
2014,05,01,05,26,13.70
2014,05,01,05,27,13.70
2014,05,01,05,28,13.60
2014,05,01,05,29,13.60
2014,05,01,05,30,13.60
2014,05,01,05,31,13.50
2014,05,01,05,32,13.50
2014,05,01,05,33,13.50
2014,05,01,05,34,13.50
2014,05,01,05,35,13.40
2014,05,01,05,36,13.40
2014,05,01,05,37,13.40
2014,05,01,05,38,13.30
2014,05,01,05,39,13.30
2014,05,01,05,40,13.30
2014,05,01,05,41,13.20
2014,05,01,05,42,13.30
2014,05,01,05,43,13.30
2014,05,01,05,44,13.40
2014,05,01,05,45,13.40
2014,05,01,05,46,13.40
2014,05,01,05,47,13.50
2014,05,01,05,48,13.50
2014,05,01,05,49,13.40
2014,05,01,05,50,13.40
2014,05,01,05,51,13.50
2014,05,01,05,52,13.50
2014,05,01,05,53,13.60
2014,05,01,05,54,13.70
2014,05,01,05,55,13.70
2014,05,01,05,56,13.70
2014,05,01,05,57,13.70
2014,05,01,05,58,13.80
2014,05,01,05,59,13.80
2014,05,01,06,00,13.90
2014,05,01,06,01,14.00
2014,05,01,06,02,14.00
2014,05,01,06,03,14.10
2014,05,01,06,04,14.10
2014,05,01,06,05,14.10
2014,05,01,06,06,14.00
2014,05,01,06,07,14.00
2014,05,01,06,08,13.90
2014,05,01,06,09,13.80
2014,05,01,06,10,13.70
2014,05,01,06,11,13.70
2014,05,01,06,12,13.70
2014,05,01,06,13,13.70
2014,05,01,06,14,13.70
2014,05,01,06,15,13.80
2014,05,01,06,16,13.80
2014,05,01,06,17,13.90
2014,05,01,06,18,13.90
2014,05,01,06,19,14.00
2014,05,01,06,20,14.00
2014,05,01,06,21,14.00
2014,05,01,06,22,14.00
2014,05,01,06,23,14.10
2014,05,01,06,24,14.10
2014,05,01,06,25,14.10
2014,05,01,06,26,14.20
2014,05,01,06,27,14.20
2014,05,01,06,28,14.30
2014,05,01,06,29,14.30
2014,05,01,06,30,14.30
2014,05,01,06,31,14.30
2014,05,01,06,32,14.30
2014,05,01,06,33,14.30
2014,05,01,06,34,14.30
2014,05,01,06,35,14.40
2014,05,01,06,36,14.40
2014,05,01,06,37,14.40
2014,05,01,06,38,14.50
2014,05,01,06,39,14.60
2014,05,01,06,40,14.60
2014,05,01,06,41,14.60
2014,05,01,06,42,14.60
2014,05,01,06,43,14.70
2014,05,01,06,44,14.70
2014,05,01,06,45,14.70
2014,05,01,06,46,14.70
2014,05,01,06,47,14.80
2014,05,01,06,48,14.80
2014,05,01,06,49,14.80
2014,05,01,06,50,14.80
2014,05,01,06,51,14.80
2014,05,01,06,52,14.80
2014,05,01,06,53,14.90
2014,05,01,06,54,15.00
2014,05,01,06,55,15.10
2014,05,01,06,56,15.10
2014,05,01,06,57,15.20
2014,05,01,06,58,15.20
2014,05,01,06,59,15.20
2014,05,01,07,00,15.30
2014,05,01,07,01,15.30
2014,05,01,07,02,15.30
2014,05,01,07,03,15.30
2014,05,01,07,04,15.30
2014,05,01,07,05,15.30
2014,05,01,07,06,15.30
2014,05,01,07,07,15.20
2014,05,01,07,08,15.30
2014,05,01,07,09,15.30
2014,05,01,07,10,15.30
2014,05,01,07,11,15.30
2014,05,01,07,12,15.30
2014,05,01,07,13,15.30
2014,05,01,07,14,15.30
2014,05,01,07,15,15.30
2014,05,01,07,16,15.30
2014,05,01,07,17,15.40
2014,05,01,07,18,15.40
2014,05,01,07,19,15.40
2014,05,01,07,20,15.40
2014,05,01,07,21,15.40
2014,05,01,07,22,15.40
2014,05,01,07,23,15.40
2014,05,01,07,24,15.40
2014,05,01,07,25,15.40
2014,05,01,07,26,15.40
2014,05,01,07,27,15.40
2014,05,01,07,28,15.40
2014,05,01,07,29,15.50
2014,05,01,07,30,15.50
2014,05,01,07,31,15.50
2014,05,01,07,32,15.50
2014,05,01,07,33,15.50
2014,05,01,07,34,15.40
2014,05,01,07,35,15.40
2014,05,01,07,36,15.40
2014,05,01,07,37,15.40
2014,05,01,07,38,15.40
2014,05,01,07,39,15.40
2014,05,01,07,40,15.40
2014,05,01,07,41,15.40
2014,05,01,07,42,15.40
2014,05,01,07,43,15.40
2014,05,01,07,44,15.50
2014,05,01,07,45,15.50
2014,05,01,07,46,15.50
2014,05,01,07,47,15.50
2014,05,01,07,48,15.60
2014,05,01,07,49,15.60
2014,05,01,07,50,15.60
2014,05,01,07,51,15.60
2014,05,01,07,52,15.70
2014,05,01,07,53,15.70
2014,05,01,07,54,15.70
2014,05,01,07,55,15.80
2014,05,01,07,56,15.80
2014,05,01,07,57,15.90
2014,05,01,07,58,16.00
2014,05,01,07,59,16.00
2014,05,01,08,00,16.10
2014,05,01,08,01,16.10
2014,05,01,08,02,16.20
2014,05,01,08,03,16.30
2014,05,01,08,04,16.30
2014,05,01,08,05,16.30
2014,05,01,08,06,16.30
2014,05,01,08,07,16.40
2014,05,01,08,08,16.40
2014,05,01,08,09,16.40
2014,05,01,08,10,16.40
2014,05,01,08,11,16.50
2014,05,01,08,12,16.50
2014,05,01,08,13,16.60
2014,05,01,08,14,16.60
2014,05,01,08,15,16.70
2014,05,01,08,16,16.70
2014,05,01,08,17,16.70
2014,05,01,08,18,16.80
2014,05,01,08,19,16.80
2014,05,01,08,20,16.80
2014,05,01,08,21,16.80
2014,05,01,08,22,16.80
2014,05,01,08,23,16.80
2014,05,01,08,24,16.90
2014,05,01,08,25,16.90
2014,05,01,08,26,16.90
2014,05,01,08,27,16.90
2014,05,01,08,28,16.90
2014,05,01,08,29,16.90
2014,05,01,08,30,16.90
2014,05,01,08,31,16.90
2014,05,01,08,32,16.90
2014,05,01,08,33,16.90
2014,05,01,08,34,16.90
2014,05,01,08,35,17.00
2014,05,01,08,36,17.00
2014,05,01,08,37,17.00
2014,05,01,08,38,17.10
2014,05,01,08,39,17.20
2014,05,01,08,40,17.20
2014,05,01,08,41,17.30
2014,05,01,08,42,17.30
2014,05,01,08,43,17.40
2014,05,01,08,44,17.50
2014,05,01,08,45,17.50
2014,05,01,08,46,17.50
2014,05,01,08,47,17.60
2014,05,01,08,48,17.60
2014,05,01,08,49,17.50
2014,05,01,08,50,17.50
2014,05,01,08,51,17.60
2014,05,01,08,52,17.60
2014,05,01,08,53,17.70
2014,05,01,08,54,17.70
2014,05,01,08,55,17.70
2014,05,01,08,56,17.70
2014,05,01,08,57,17.80
2014,05,01,08,58,17.80
2014,05,01,08,59,17.90
2014,05,01,09,00,17.90
2014,05,01,09,01,17.90
2014,05,01,09,02,17.90
2014,05,01,09,03,17.80
2014,05,01,09,04,17.80
2014,05,01,09,05,17.80
2014,05,01,09,06,17.80
2014,05,01,09,07,17.80
2014,05,01,09,08,17.80
2014,05,01,09,09,17.90
2014,05,01,09,10,17.90
2014,05,01,09,11,17.90
2014,05,01,09,12,17.90
2014,05,01,09,13,18.00
2014,05,01,09,14,18.10
2014,05,01,09,15,18.20
2014,05,01,09,16,18.20
2014,05,01,09,17,18.20
2014,05,01,09,18,18.20
2014,05,01,09,19,18.20
2014,05,01,09,20,18.20
2014,05,01,09,21,18.20
2014,05,01,09,22,18.20
2014,05,01,09,23,18.30
2014,05,01,09,24,18.30
2014,05,01,09,25,18.20
2014,05,01,09,26,18.20
2014,05,01,09,27,18.20
2014,05,01,09,28,18.10
2014,05,01,09,29,18.20
2014,05,01,09,30,18.20
2014,05,01,09,31,18.30
2014,05,01,09,32,18.30
2014,05,01,09,33,18.30
2014,05,01,09,34,18.30
2014,05,01,09,35,18.40
2014,05,01,09,36,18.50
2014,05,01,09,37,18.60
2014,05,01,09,38,18.70
2014,05,01,09,39,18.80
2014,05,01,09,40,18.80
2014,05,01,09,41,18.80
2014,05,01,09,42,18.90
2014,05,01,09,43,19.00
2014,05,01,09,44,19.10
2014,05,01,09,45,19.10
2014,05,01,09,46,19.10
2014,05,01,09,47,19.10
2014,05,01,09,48,19.20
2014,05,01,09,49,19.20
2014,05,01,09,50,19.30
2014,05,01,09,51,19.30
2014,05,01,09,52,19.30
2014,05,01,09,53,19.30
2014,05,01,09,54,19.30
2014,05,01,09,55,19.40
2014,05,01,09,56,19.30
2014,05,01,09,57,19.30
2014,05,01,09,58,19.30
2014,05,01,09,59,19.20
2014,05,01,10,00,19.20
2014,05,01,10,01,19.20
2014,05,01,10,02,19.20
2014,05,01,10,03,19.20
2014,05,01,10,04,19.30
2014,05,01,10,05,19.40
2014,05,01,10,06,19.40
2014,05,01,10,07,19.50
2014,05,01,10,08,19.50
2014,05,01,10,09,19.60
2014,05,01,10,10,19.70
2014,05,01,10,11,19.80
2014,05,01,10,12,19.80
2014,05,01,10,13,19.80
2014,05,01,10,14,19.80
2014,05,01,10,15,19.80
2014,05,01,10,16,19.80
2014,05,01,10,17,19.70
2014,05,01,10,18,19.70
2014,05,01,10,19,19.70
2014,05,01,10,20,19.70
2014,05,01,10,21,19.60
2014,05,01,10,22,19.60
2014,05,01,10,23,19.50
2014,05,01,10,24,19.40
2014,05,01,10,25,19.30
2014,05,01,10,26,19.30
2014,05,01,10,27,19.40
2014,05,01,10,28,19.50
2014,05,01,10,29,19.60
2014,05,01,10,30,19.60
2014,05,01,10,31,19.60
2014,05,01,10,32,19.60
2014,05,01,10,33,19.60
2014,05,01,10,34,19.70
2014,05,01,10,35,19.60
2014,05,01,10,36,19.60
2014,05,01,10,37,19.60
2014,05,01,10,38,19.60
2014,05,01,10,39,19.50
2014,05,01,10,40,19.40
2014,05,01,10,41,19.40
2014,05,01,10,42,19.40
2014,05,01,10,43,19.40
2014,05,01,10,44,19.50
2014,05,01,10,45,19.60
2014,05,01,10,46,19.60
2014,05,01,10,47,19.70
2014,05,01,10,48,19.70
2014,05,01,10,49,19.90
2014,05,01,10,50,19.90
2014,05,01,10,51,20.00
2014,05,01,10,52,20.00
2014,05,01,10,53,20.00
2014,05,01,10,54,20.00
2014,05,01,10,55,19.90
2014,05,01,10,56,19.80
2014,05,01,10,57,19.80
2014,05,01,10,58,19.80
2014,05,01,10,59,19.90
2014,05,01,11,00,19.90
2014,05,01,11,01,19.90
2014,05,01,11,02,20.00
2014,05,01,11,03,20.00
2014,05,01,11,04,20.00
2014,05,01,11,05,19.90
2014,05,01,11,06,20.00
2014,05,01,11,07,20.10
2014,05,01,11,08,20.10
2014,05,01,11,09,20.20
2014,05,01,11,10,20.30
2014,05,01,11,11,20.20
2014,05,01,11,12,20.20
2014,05,01,11,13,20.30
2014,05,01,11,14,20.30
2014,05,01,11,15,20.30
2014,05,01,11,16,20.20
2014,05,01,11,17,20.20
2014,05,01,11,18,20.20
2014,05,01,11,19,20.20
2014,05,01,11,20,20.30
2014,05,01,11,21,20.30
2014,05,01,11,22,20.20
2014,05,01,11,23,20.20
2014,05,01,11,24,20.30
2014,05,01,11,25,20.40
2014,05,01,11,26,20.40
2014,05,01,11,27,20.50
2014,05,01,11,28,20.50
2014,05,01,11,29,20.40
2014,05,01,11,30,20.40
2014,05,01,11,31,20.30
2014,05,01,11,32,20.30
2014,05,01,11,33,20.40
2014,05,01,11,34,20.50
2014,05,01,11,35,20.40
2014,05,01,11,36,20.50
2014,05,01,11,37,20.40
2014,05,01,11,38,20.40
2014,05,01,11,39,20.40
2014,05,01,11,40,20.50
2014,05,01,11,41,20.60
2014,05,01,11,42,20.70
2014,05,01,11,43,20.70
2014,05,01,11,44,20.70
2014,05,01,11,45,20.70
2014,05,01,11,46,20.60
2014,05,01,11,47,20.70
2014,05,01,11,48,20.70
2014,05,01,11,49,20.80
2014,05,01,11,50,20.80
2014,05,01,11,51,20.80
2014,05,01,11,52,20.80
2014,05,01,11,53,20.80
2014,05,01,11,54,20.90
2014,05,01,11,55,20.90
2014,05,01,11,56,20.90
2014,05,01,11,57,20.90
2014,05,01,11,58,21.00
2014,05,01,11,59,21.00
2014,05,01,12,00,21.10
2014,05,01,12,01,21.10
2014,05,01,12,02,21.10
2014,05,01,12,03,21.10
2014,05,01,12,04,21.10
2014,05,01,12,05,21.10
2014,05,01,12,06,21.10
2014,05,01,12,07,21.10
2014,05,01,12,08,21.20
2014,05,01,12,09,21.20
2014,05,01,12,10,21.20
2014,05,01,12,11,21.30
2014,05,01,12,12,21.40
2014,05,01,12,13,21.40
2014,05,01,12,14,21.40
2014,05,01,12,15,21.40
2014,05,01,12,16,21.40
2014,05,01,12,17,21.40
2014,05,01,12,18,21.30
2014,05,01,12,19,21.30
2014,05,01,12,20,21.30
2014,05,01,12,21,21.40
2014,05,01,12,22,21.40
2014,05,01,12,23,21.50
2014,05,01,12,24,21.50
2014,05,01,12,25,21.60
2014,05,01,12,26,21.70
2014,05,01,12,27,21.70
2014,05,01,12,28,21.80
2014,05,01,12,29,21.90
2014,05,01,12,30,22.00
2014,05,01,12,31,22.20
2014,05,01,12,32,22.20
2014,05,01,12,33,22.30
2014,05,01,12,34,22.30
2014,05,01,12,35,22.40
2014,05,01,12,36,22.40
2014,05,01,12,37,22.50
2014,05,01,12,38,22.60
2014,05,01,12,39,22.50
2014,05,01,12,40,22.40
2014,05,01,12,41,22.40
2014,05,01,12,42,22.30
2014,05,01,12,43,22.30
2014,05,01,12,44,22.30
2014,05,01,12,45,22.30
2014,05,01,12,46,22.30
2014,05,01,12,47,22.30
2014,05,01,12,48,22.40
2014,05,01,12,49,22.40
2014,05,01,12,50,22.50
2014,05,01,12,51,22.50
2014,05,01,12,52,22.60
2014,05,01,12,53,22.60
2014,05,01,12,54,22.40
2014,05,01,12,55,22.30
2014,05,01,12,56,22.10
2014,05,01,12,57,22.00
2014,05,01,12,58,22.00
2014,05,01,12,59,22.00
2014,05,01,13,00,22.00
2014,05,01,13,01,22.10
2014,05,01,13,02,22.30
2014,05,01,13,03,22.20
2014,05,01,13,04,22.10
2014,05,01,13,05,22.00
2014,05,01,13,06,22.00
2014,05,01,13,07,22.10
2014,05,01,13,08,22.20
2014,05,01,13,09,22.30
2014,05,01,13,10,22.40
2014,05,01,13,11,22.40
2014,05,01,13,12,22.40
2014,05,01,13,13,22.50
2014,05,01,13,14,22.60
2014,05,01,13,15,22.70
2014,05,01,13,16,22.60
2014,05,01,13,17,22.50
2014,05,01,13,18,22.50
2014,05,01,13,19,22.40
2014,05,01,13,20,22.30
2014,05,01,13,21,22.20
2014,05,01,13,22,22.20
2014,05,01,13,23,22.20
2014,05,01,13,24,22.20
2014,05,01,13,25,22.20
2014,05,01,13,26,22.20
2014,05,01,13,27,22.20
2014,05,01,13,28,22.20
2014,05,01,13,29,22.10
2014,05,01,13,30,22.10
2014,05,01,13,31,21.90
2014,05,01,13,32,21.90
2014,05,01,13,33,21.80
2014,05,01,13,34,21.80
2014,05,01,13,35,21.80
2014,05,01,13,36,21.90
2014,05,01,13,37,22.10
2014,05,01,13,38,22.40
2014,05,01,13,39,22.60
2014,05,01,13,40,22.70
2014,05,01,13,41,22.80
2014,05,01,13,42,22.90
2014,05,01,13,43,23.00
2014,05,01,13,44,23.00
2014,05,01,13,45,23.00
2014,05,01,13,46,22.80
2014,05,01,13,47,22.80
2014,05,01,13,48,22.80
2014,05,01,13,49,22.90
2014,05,01,13,50,23.10
2014,05,01,13,51,23.10
2014,05,01,13,52,22.90
2014,05,01,13,53,22.80
2014,05,01,13,54,22.70
2014,05,01,13,55,22.70
2014,05,01,13,56,22.70
2014,05,01,13,57,22.70
2014,05,01,13,58,22.70
2014,05,01,13,59,22.70
2014,05,01,14,00,22.70
2014,05,01,14,01,22.60
2014,05,01,14,02,22.60
2014,05,01,14,03,22.60
2014,05,01,14,04,22.70
2014,05,01,14,05,22.70
2014,05,01,14,06,22.60
2014,05,01,14,07,22.60
2014,05,01,14,08,22.60
2014,05,01,14,09,22.60
2014,05,01,14,10,22.50
2014,05,01,14,11,22.50
2014,05,01,14,12,22.50
2014,05,01,14,13,22.50
2014,05,01,14,14,22.60
2014,05,01,14,15,22.60
2014,05,01,14,16,22.60
2014,05,01,14,17,22.60
2014,05,01,14,18,22.60
2014,05,01,14,19,22.70
2014,05,01,14,20,22.80
2014,05,01,14,21,22.90
2014,05,01,14,22,22.90
2014,05,01,14,23,22.90
2014,05,01,14,24,22.90
2014,05,01,14,25,22.80
2014,05,01,14,26,22.80
2014,05,01,14,27,22.80
2014,05,01,14,28,22.80
2014,05,01,14,29,22.80
2014,05,01,14,30,22.70
2014,05,01,14,31,22.80
2014,05,01,14,32,22.90
2014,05,01,14,33,23.00
2014,05,01,14,34,23.10
2014,05,01,14,35,23.10
2014,05,01,14,36,23.00
2014,05,01,14,37,22.90
2014,05,01,14,38,22.90
2014,05,01,14,39,22.90
2014,05,01,14,40,22.80
2014,05,01,14,41,22.90
2014,05,01,14,42,22.90
2014,05,01,14,43,23.00
2014,05,01,14,44,23.00
2014,05,01,14,45,23.00
2014,05,01,14,46,23.00
2014,05,01,14,47,22.90
2014,05,01,14,48,22.90
2014,05,01,14,49,22.80
2014,05,01,14,50,22.80
2014,05,01,14,51,22.90
2014,05,01,14,52,22.90
2014,05,01,14,53,23.00
2014,05,01,14,54,23.20
2014,05,01,14,55,23.20
2014,05,01,14,56,23.20
2014,05,01,14,57,23.20
2014,05,01,14,58,23.20
2014,05,01,14,59,23.20
2014,05,01,15,00,23.30
2014,05,01,15,01,23.40
2014,05,01,15,02,23.50
2014,05,01,15,03,23.60
2014,05,01,15,04,23.60
2014,05,01,15,05,23.60
2014,05,01,15,06,23.60
2014,05,01,15,07,23.70
2014,05,01,15,08,23.70
2014,05,01,15,09,23.70
2014,05,01,15,10,23.80
2014,05,01,15,11,23.80
2014,05,01,15,12,23.90
2014,05,01,15,13,24.00
2014,05,01,15,14,24.00
2014,05,01,15,15,24.00
2014,05,01,15,16,23.90
2014,05,01,15,17,23.80
2014,05,01,15,18,23.80
2014,05,01,15,19,23.80
2014,05,01,15,20,23.90
2014,05,01,15,21,24.00
2014,05,01,15,22,24.10
2014,05,01,15,23,24.10
2014,05,01,15,24,24.10
2014,05,01,15,25,24.10
2014,05,01,15,26,24.10
2014,05,01,15,27,24.10
2014,05,01,15,28,24.10
2014,05,01,15,29,24.20
2014,05,01,15,30,24.20
2014,05,01,15,31,24.20
2014,05,01,15,32,24.30
2014,05,01,15,33,24.30
2014,05,01,15,34,24.40
2014,05,01,15,35,24.40
2014,05,01,15,36,24.50
2014,05,01,15,37,24.60
2014,05,01,15,38,24.70
2014,05,01,15,39,24.70
2014,05,01,15,40,24.70
2014,05,01,15,41,24.70
2014,05,01,15,42,24.70
2014,05,01,15,43,24.70
2014,05,01,15,44,24.60
2014,05,01,15,45,24.70
2014,05,01,15,46,24.70
2014,05,01,15,47,24.70
2014,05,01,15,48,24.70
2014,05,01,15,49,24.80
2014,05,01,15,50,24.90
2014,05,01,15,51,25.00
2014,05,01,15,52,25.10
2014,05,01,15,53,25.10
2014,05,01,15,54,25.00
2014,05,01,15,55,24.90
2014,05,01,15,56,24.90
2014,05,01,15,57,24.80
2014,05,01,15,58,24.80
2014,05,01,15,59,24.80
2014,05,01,16,00,24.90
2014,05,01,16,01,24.90
2014,05,01,16,02,24.90
2014,05,01,16,03,24.90
2014,05,01,16,04,24.90
2014,05,01,16,05,24.90
2014,05,01,16,06,24.80
2014,05,01,16,07,24.70
2014,05,01,16,08,24.70
2014,05,01,16,09,24.70
2014,05,01,16,10,24.70
2014,05,01,16,11,24.70
2014,05,01,16,12,24.80
2014,05,01,16,13,24.90
2014,05,01,16,14,25.00
2014,05,01,16,15,25.20
2014,05,01,16,16,25.30
2014,05,01,16,17,25.30
2014,05,01,16,18,25.30
2014,05,01,16,19,25.20
2014,05,01,16,20,25.20
2014,05,01,16,21,25.20
2014,05,01,16,22,25.20
2014,05,01,16,23,25.40
2014,05,01,16,24,25.50
2014,05,01,16,25,25.60
2014,05,01,16,26,25.50
2014,05,01,16,27,25.40
2014,05,01,16,28,25.30
2014,05,01,16,29,25.20
2014,05,01,16,30,25.10
2014,05,01,16,31,25.00
2014,05,01,16,32,24.80
2014,05,01,16,33,24.70
2014,05,01,16,34,24.70
2014,05,01,16,35,24.70
2014,05,01,16,36,24.70
2014,05,01,16,37,24.70
2014,05,01,16,38,24.80
2014,05,01,16,39,25.00
2014,05,01,16,40,25.00
2014,05,01,16,41,25.20
2014,05,01,16,42,25.20
2014,05,01,16,43,25.20
2014,05,01,16,44,25.20
2014,05,01,16,45,25.20
2014,05,01,16,46,25.30
2014,05,01,16,47,25.30
2014,05,01,16,48,25.30
2014,05,01,16,49,25.20
2014,05,01,16,50,25.10
2014,05,01,16,51,24.90
2014,05,01,16,52,24.80
2014,05,01,16,53,24.70
2014,05,01,16,54,24.50
2014,05,01,16,55,24.40
2014,05,01,16,56,24.20
2014,05,01,16,57,24.00
2014,05,01,16,58,23.90
2014,05,01,16,59,23.70
2014,05,01,17,00,23.60
2014,05,01,17,01,23.60
2014,05,01,17,02,23.60
2014,05,01,17,03,23.50
2014,05,01,17,04,23.50
2014,05,01,17,05,23.40
2014,05,01,17,06,23.40
2014,05,01,17,07,23.30
2014,05,01,17,08,23.40
2014,05,01,17,09,23.40
2014,05,01,17,10,23.50
2014,05,01,17,11,23.50
2014,05,01,17,12,23.60
2014,05,01,17,13,23.60
2014,05,01,17,14,23.60
2014,05,01,17,15,23.70
2014,05,01,17,16,23.70
2014,05,01,17,17,23.80
2014,05,01,17,18,23.90
2014,05,01,17,19,24.00